Location: *
(48.7147°N, 9.5236°E)
Time: 01:39:09
(UTC+00:00)

Daily predictions for brighter satellites

Satellite Brightness Start Highest point End
(mag) Time Altitude Azimuth Time Altitude Azimuth Time Altitude Azimuth
Resurs 1-4 Rocket 4.5 00:09:16 10° NE 00:10:54 18° NE 00:10:54 18° NE
CZ-2D R/B 4.4 00:12:13 10° NE 00:13:55 18° NE 00:13:55 18° NE
ATLAS 5 CENTAUR R/B 4.5 00:34:43 15° NNE 00:34:43 15° NNE 00:35:42 10° NE
ATLAS 2AS CENTAUR R/B 4.5 00:50:30 10° NW 00:57:13 30° NNE 01:03:33 10° ENE
SL-16 R/B 3.8 01:04:18 33° NNW 01:04:18 33° NNW 01:07:31 10° NNW
ADEOS II 3.8 01:01:09 10° NNE 01:04:23 28° ENE 01:04:23 28° ENE
Cosmos 1697 Rocket 3.9 01:14:51 38° NE 01:14:51 38° NE 01:18:24 10° NNE
Cosmos 1980 Rocket 3.5 01:20:38 35° E 01:20:38 35° E 01:24:40 10° NE
Cosmos 2263 Rocket 3.5 01:15:52 10° NNW 01:21:06 37° NE 01:26:20 10° ESE
USA 234 3.9 01:19:20 10° E 01:25:38 52° NNE 01:28:11 34° NW
Cosmos 1821 Rocket 4.4 01:23:19 10° N 01:28:34 59° NNE 01:28:34 59° NNE
SL-16 R/B 4.3 01:38:10 16° ESE 01:39:57 18° E 01:43:38 10° ENE
Cosmos 1238 Rocket 4.4 01:43:16 10° N 01:49:45 57° ENE 01:51:14 46° ESE
Resurs 1-4 Rocket 3.3 01:48:48 10° N 01:51:57 33° NNW 01:51:57 33° NNW
CZ-2D R/B 3.3 01:52:00 10° N 01:55:14 33° NNW 01:55:14 33° NNW
ASTEX 1 4.3 01:54:03 10° NNE 01:58:51 44° E 01:59:09 43° E
Nadezhda 3 Rocket 3.9 02:01:33 77° NNW 02:01:33 77° NNW 02:07:19 10° N
SJ 16-02 3.2 02:00:59 10° NNW 02:03:00 25° N 02:03:00 25° N
Gbstr 26 Del rocket 4.3 02:06:54 59° W 02:08:38 78° SSW 02:16:14 10° ESE
Cosmos 2228 Rocket 4.1 02:10:31 43° E 02:10:31 43° E 02:14:27 10° NNE
SL-08 R/B 4.5 02:13:02 34° NNW 02:13:02 34° NNW 02:15:38 10° NNW
Lacrosse 5 2.4 02:13:50 54° N 02:13:50 54° N 02:18:17 10° NE
ATLAS 5 CENTAUR R/B 3.8 02:16:15 18° NNW 02:16:54 18° NNW 02:20:22 10° NNE
Cosmos 972 4.4 02:20:12 74° NE 02:20:12 74° NE 02:24:44 10° NNE
H-2A R/B 3.7 02:18:04 10° SE 02:22:04 34° ENE 02:26:08 10° N
Cosmos 2278 3.7 02:23:24 70° NW 02:23:24 70° NW 02:29:05 10° NNE
ARIANE 5 R/B 2.5 02:20:05 10° NNE 02:25:12 76° ESE 02:25:30 73° SE
IRS-P3 4.0 02:20:22 10° NNE 02:25:43 81° WNW 02:25:43 81° WNW
NOSS 3-4 (A) 4.3 02:18:59 10° NW 02:25:44 59° NE 02:33:14 10° ESE
NOSS 3-4 (C) 4.3 02:19:06 10° NW 02:25:50 58° NE 02:33:20 10° ESE
Meteor 1-14 Rocket 4.1 02:20:23 10° NNW 02:25:32 70° WNW 02:25:32 70° WNW
SL-4 R/B 3.6 02:27:59 32° SE 02:27:59 32° SE 02:31:52 10° ENE
CZ-2C R/B 4.0 02:28:40 10° NNE 02:32:13 36° E 02:32:41 34° ESE
USA 267 3.4 02:25:44 10° ENE 02:32:15 64° SE 02:34:08 46° SSW
Cosmos 2369 4.2 02:33:25 43° NW 02:33:26 43° NW 02:38:55 10° NNE
USA 305 3.6 02:34:11 48° N 02:34:11 48° N 02:37:57 10° ENE
NOSS 3-3 (A) 3.9 02:34:42 57° SSW 02:36:02 79° SE 02:42:45 10° NE
Meteor 1-17 Rocket 4.5 02:30:34 10° NNW 02:36:04 71° W 02:36:17 70° WSW
IRS-1D 4.2 02:31:02 10° N 02:35:33 42° NW 02:35:33 42° NW
NOSS 3-3 (C) 3.9 02:34:50 57° SSW 02:36:08 79° SE 02:42:49 10° NE
USA 306 3.5 02:38:23 48° N 02:38:23 48° N 02:42:19 10° ENE
Cosmos 1782 4.2 02:42:19 29° NNW 02:42:19 29° NNW 02:44:33 10° N
ADEOS Rocket 4.3 02:35:50 10° SE 02:41:49 40° ENE 02:47:17 10° N
ADEOS II 2.7 02:40:45 10° N 02:45:20 40° WNW 02:45:20 40° WNW
Cosmos 990 Rocket 3.8 02:43:39 10° NNW 02:48:53 87° WSW 02:54:06 10° SSE
ATLAS 2AS CENTAUR R/B 3.2 02:42:03 10° NW 02:49:39 66° NE 02:56:37 10° SE
IDEFIX/ARIANE 42P 2.5 02:44:22 10° NNE 02:49:41 86° WNW 02:51:13 48° SSW
Cosmos 1339 Rocket 4.4 02:47:25 36° SSW 02:50:09 84° W 02:56:22 10° N
CZ-4B R/B 4.5 02:48:50 10° ESE 02:50:56 16° ENE 02:53:03 10° NNE
Cosmos 921 Rocket 2.9 02:52:55 69° NW 02:52:55 69° NW 02:56:55 10° NNE
Cosmos 2360 Rocket 3.9 02:48:32 10° SSE 02:53:21 30° ESE 02:58:11 10° NE
Cosmos 1697 Rocket 3.8 02:56:36 28° WNW 02:57:14 28° NW 03:02:04 10° NNE
Cosmos 389 Rocket 4.4 03:00:21 21° NNW 03:00:21 21° NNW 03:01:54 10° N
Cosmos 468 Rocket 4.1 02:57:17 35° S 02:59:32 76° ESE 03:04:49 10° NNE
Celestis-02/Orion 38 4.4 02:56:25 10° SSE 03:01:38 71° WSW 03:06:47 10° NNW
Cosmos 1980 Rocket 2.7 03:02:25 37° WNW 03:03:26 41° NW 03:08:47 10° NNE
Cosmos 2263 Rocket 2.4 02:59:47 10° NW 03:05:08 45° WSW 03:10:29 10° S
Meteor 1-11 Rocket 3.7 03:00:28 10° NNW 03:06:17 88° E 03:11:55 10° S
USA 307 3.7 03:06:10 35° NW 03:07:14 43° N 03:11:19 10° ENE
USA 234 3.1 03:01:55 10° SE 03:08:29 80° SW 03:15:03 10° WNW
Cosmos 1844 Rocket 3.5 03:04:21 10° NNW 03:09:53 53° NE 03:15:25 10° SE
USA 308 3.7 03:09:21 33° NW 03:10:35 42° N 03:14:39 10° ENE
Cosmos 44 3.8 03:10:35 35° WNW 03:11:17 38° NW 03:15:44 10° NNE
Cosmos 2322 Rocket 2.4 03:08:23 23° SSW 03:12:00 71° ESE 03:17:42 10° NNE
Meteor 1-4 Rocket 2.3 03:13:45 72° W 03:13:50 72° WNW 03:17:23 10° N
Cosmos 1666 2.5 03:12:23 10° NNW 03:16:12 75° W 03:18:11 27° S
Meteor 1-27 Rocket 4.0 03:10:51 10° S 03:16:46 75° E 03:22:39 10° NNE
CZ-2D R/B 3.8 03:13:00 10° N 03:17:05 46° WNW 03:17:37 44° W
Cosmos 1707 Rocket 3.6 03:14:39 20° S 03:17:33 80° E 03:21:56 10° NNE
Cosmos 1812 3.0 03:21:36 45° W 03:21:42 45° WNW 03:25:26 10° N
SL-16 R/B 2.1 03:20:04 27° SSW 03:23:20 82° WNW 03:29:03 10° NNE
CZ-3B R/B 3.2 03:21:33 27° WNW 03:23:28 49° N 03:34:40 10° ENE
COSMOS 2441 4.3 03:20:00 10° N 03:24:53 68° WNW 03:27:54 23° SSW
USA 276 2.0 03:25:21 64° W 03:25:47 87° SSW 03:29:00 10° ESE
Cosmos 372 Rocket 4.3 03:22:08 10° NNW 03:27:17 68° ENE 03:32:22 10° SSE
Cosmos 1536 2.7 03:24:27 10° NNW 03:28:33 78° W 03:32:35 10° S
Cosmos 2173 Rocket 4.1 03:24:31 10° N 03:30:54 85° E 03:37:17 10° S
Cosmos 1733 Rocket 3.0 03:26:35 10° N 03:30:59 83° E 03:35:17 10° S
ATLAS CENTAUR R/B 3.5 03:20:59 10° WNW 03:31:54 59° NNE 03:36:05 10° E
Spot 4 Rocket 4.4 03:27:07 10° N 03:31:59 44° WNW 03:34:17 27° WSW
CZ-2C R/B 2.6 03:27:36 10° NNE 03:32:47 79° ESE 03:37:58 10° S
Cosmos 1898 Rocket 3.8 03:28:40 10° NW 03:33:36 42° WSW 03:38:33 10° S
ASTEX 1 4.4 03:33:29 10° NNW 03:37:37 27° WNW 03:38:38 25° W
ALOS 3.8 03:33:32 10° NNE 03:37:52 37° E 03:42:11 10° SSE
CZ-4C R/B 3.6 03:33:01 10° NW 03:39:49 56° NE 03:47:47 10° ESE
Cosmos 1869 Rocket 4.4 03:37:03 10° NNW 03:40:43 27° W 03:40:48 27° W
MSX 4.0 03:35:57 10° N 03:41:32 51° WNW 03:45:54 16° SW
Cosmos 2219 Rocket 4.3 03:37:19 10° SSE 03:42:00 27° ESE 03:46:42 10° NE
Cosmos 2298 Rocket 4.5 03:38:14 10° NNW 03:43:33 65° ENE 03:48:48 10° SSE
Cosmos 967 Rocket 4.5 03:40:08 17° SW 03:45:18 83° NW 03:51:45 10° NE
PSLV R/B 3.4 03:42:24 10° N 03:46:36 72° WNW 03:50:46 10° SSW
Landsat 5 4.1 03:43:15 10° SSW 03:47:26 36° W 03:51:34 10° NNW
Cosmos 2228 Rocket 4.3 03:48:02 21° W 03:48:40 22° WNW 03:52:07 10° NNW
Cosmos 1862 Rocket 3.5 03:47:52 10° S 03:52:14 90° ESE 03:56:37 10° N
Cosmos 1937 Rocket 3.9 03:49:56 10° NW 03:54:39 37° WSW 03:59:20 10° S
CZ-4C R/B 4.2 03:55:01 23° W 03:55:01 23° W 03:57:50 10° NW
Lacrosse 5 3.1 03:53:01 13° WNW 03:57:03 32° N 04:01:37 10° ENE
H-2A R/B 2.9 03:54:10 10° SSW 03:58:03 30° W 04:02:00 10° NW
X-37B 2.9 03:59:50 12° SSW 03:59:50 12° SSW 04:00:50 10° S
ERBS 3.5 03:58:34 19° WNW 04:00:21 30° NNW 04:03:24 10° NE
Cosmos 2208 Rocket 4.0 03:55:26 10° SSW 04:00:40 88° WNW 04:05:54 10° NNE
USA 32 4.5 03:57:04 10° NNW 04:01:56 39° W 04:06:46 10° SSW
Cosmos 841 Rocket 3.5 03:57:05 10° SSW 04:02:18 71° WNW 04:07:35 10° NNE
Cosmos 2016 Rocket 3.9 03:56:16 10° N 04:02:26 83° W 04:08:31 10° S
ERS-2 2.6 03:59:45 10° SSW 04:03:09 36° W 04:06:35 10° NNW
FALCON 9 DEB 3.2 04:01:05 22° WSW 04:03:10 71° NNW 04:06:37 10° ENE
ATLAS 5 CENTAUR R/B 4.2 04:00:13 10° NNW 04:03:29 17° NNE 04:07:04 10° NE
ARIANE 5 R/B 4.0 04:00:17 10° NNW 04:03:44 19° WNW 04:05:49 15° W
Cosmos 1743 2.6 04:00:15 10° NNW 04:04:04 75° W 04:07:51 10° S
Cosmos 2061 Rocket 4.0 03:58:08 10° N 04:04:36 82° W 04:11:01 10° S
Cosmos 1125 Rocket 4.1 04:01:02 10° NNW 04:06:19 63° ENE 04:11:31 10° SE
CZ-2C R/B 4.1 04:03:31 10° NNW 04:06:28 22° WNW 04:08:04 17° W
Cosmos 1814 Rocket 4.0 04:01:16 10° SSW 04:06:30 81° WNW 04:11:50 10° NNE
SL-4 R/B 2.3 04:03:35 17° WSW 04:07:06 86° NNW 04:11:57 10° ENE
Cosmos 1000 Rocket 4.5 04:01:42 10° SSW 04:07:50 66° WNW 04:13:59 10° N
Cosmos 1763 Rocket 4.2 04:04:26 15° WSW 04:08:26 37° WNW 04:13:21 10° N
Cosmos 2333 Rocket 3.3 04:03:54 10° S 04:09:23 47° ESE 04:14:53 10° NE
Cosmos 2150 Rocket 4.1 04:06:06 10° NNW 04:11:37 84° WSW 04:17:00 10° SSE
Cosmos 2233 Rocket 4.4 04:06:30 10° N 04:12:37 67° ENE 04:18:44 10° SSE
Cosmos 1544 2.9 04:10:45 10° NNW 04:14:21 82° W 04:17:56 10° S
USA 305 3.9 04:10:20 10° WNW 04:14:23 41° N 04:18:26 10° ENE
Cosmos 2322 4.2 04:09:32 10° SSW 04:15:07 65° ESE 04:20:45 10° NNE
USA 267 3.5 04:08:51 10° NE 04:15:16 59° NNW 04:21:28 11° W
NOSS 3-4 (A) 4.2 04:10:03 10° NW 04:16:38 43° WSW 04:23:51 10° S
NOSS 3-4 (C) 4.2 04:10:09 10° NW 04:16:45 44° WSW 04:23:58 10° S
COSMOS 2455 4.0 04:11:34 10° NNW 04:17:23 46° NE 04:23:10 10° ESE
USA 306 3.9 04:14:43 10° WNW 04:18:46 41° N 04:22:50 10° E
CZ-4B R/B 1.9 04:19:58 10° SSW 04:22:56 34° W 04:25:59 10° NNW
Cosmos 1864 Rocket 4.5 04:17:26 10° NNW 04:23:40 69° W 04:29:47 10° S
ADEOS 3.6 04:18:56 10° N 04:24:09 71° WNW 04:29:20 10° SSW
Cosmos 1725 Rocket 3.9 04:18:11 10° NNW 04:24:20 70° W 04:30:27 10° S
Cosmos 540 Rocket 3.8 04:21:51 10° SW 04:26:49 46° WNW 04:31:50 10° NNE
Cosmos 1975 2.8 04:23:12 10° N 04:27:15 89° ENE 04:31:15 10° S
ADEOS Rocket 3.4 04:21:09 10° SSW 04:27:21 41° W 04:33:00 10° NNW
IDEFIX/ARIANE 42P 4.2 04:25:23 10° NNW 04:28:31 16° NW 04:31:39 10° W
COSMO-SKYMED 1 2.6 04:25:33 10° SSE 04:29:54 87° E 04:34:17 10° NNW
Cosmos 2333 4.3 04:27:26 10° SSW 04:33:14 88° ESE 04:39:03 10° NNE
Meteor 1-18 Rocket 4.2 04:28:21 10° S 04:33:54 87° WNW 04:39:32 10° NNE
Meteor 1-19 Rocket 4.3 04:29:16 10° S 04:34:46 88° E 04:40:29 10° NNE
FENGYUN 3A 3.7 04:29:57 10° N 04:35:21 72° WNW 04:40:44 10° SSW
deb Chang Zheng 4 3.8 04:32:38 10° N 04:36:47 49° WNW 04:40:54 10° SW
Cosmos 2360 Rocket 2.5 04:31:34 10° SW 04:37:06 52° NW 04:42:39 10° NNE
SAR-Lupe-4 4.4 04:36:55 10° SSW 04:40:06 30° W 04:43:20 10° NW
ATLAS 2AS CENTAUR R/B 3.3 04:33:37 10° NW 04:40:13 36° WSW 04:46:20 10° S
Cosmos 1802 Rocket 4.5 04:35:45 10° NNW 04:41:24 38° W 04:47:05 10° SSW
Cosmos 1484 Rocket 3.1 04:38:10 10° N 04:42:02 48° WNW 04:45:53 10° SW
Cosmos 1782 Rocket 3.6 04:39:10 10° NNW 04:43:40 81° W 04:48:08 10° S
Cosmos 1908 Rocket 3.9 04:40:44 10° NNW 04:45:00 45° W 04:49:15 10° SSW
